Coatesville, PA

2:36 AM EST on February 23, 2017 (GMT -0500)
Chester County Carlson

Weather History for KMQS - December, 2013

Change the Weather History Date:

Sunday, December 15, 2013

  Actual Average (KILG) Record (KILG)
Temperature  
Mean Temperature 34 °F -  
Max Temperature 37 °F 45 °F 68 °F (2015)
Min Temperature 30 °F 28 °F 9 °F (1962)
Degree Days  
Heating Degree Days 32    
Moisture  
Dew Point 29 °F    
Average Humidity 86    
Maximum Humidity 100    
Minimum Humidity 64    
Precipitation  
Precipitation 0.01 in - - ()
Sea Level Pressure  
Sea Level Pressure 29.73 in    
Wind  
Wind Speed 6 mph (WNW)    
Max Wind Speed 20 mph    
Max Gust Speed 25 mph    
Visibility 8 miles    
Events      
Averages and records for this station are not official NWS values.
T = Trace of Precipitation, MM = Missing Value Source: NWS Daily Summary

Daily Weather History Graph

Daily Weather History Graph

Search for Another Location

Airport or City:

Trip Planner

Search our weather history database for the weather conditions in past years. The results will help you decide how hot, cold, wet, or windy it might be!

Date:

Astronomy

Dec. 15, 2013 Rise Set
Actual Time 7:18 AM EST 4:39 PM EST
Civil Twilight 6:47 AM EST 5:09 PM EST
Nautical Twilight 6:13 AM EST 5:43 PM EST
Astronomical Twilight 5:40 AM EST 6:16 PM EST
Moon 3:41 PM EST (12/15) 5:32 AM EST (12/15)
Length of Visible Light 10h 22m
Length of Day
9h 21m
Waxing Gibbous, 97% of the Moon is Illuminated
Dec 15
Waxing Gibbous
Dec 17
Full
Dec 25
Last Quarter
Jan 1
New
Jan 7
First Quarter

Hourly Weather History & Observations

Time (EST) Temp. Windchill Dew Point Humidity Pressure Visibility Wind Dir Wind Speed Gust Speed Precip Events Conditions
12:15 AM 32.0 °F 27.5 °F 32.0 °F 100% 29.70 in 2.0 mi North 4.6 mph - 0.01 in   Overcast
12:35 AM 32.0 °F 28.7 °F 32.0 °F 100% 29.68 in 2.5 mi North 3.5 mph - 0.01 in   Overcast
12:55 AM 32.0 °F 28.7 °F 32.0 °F 100% 29.66 in 4.0 mi North 3.5 mph - 0.01 in   Overcast
1:15 AM 32.0 °F 28.7 °F 32.0 °F 100% 29.64 in 10.0 mi North 3.5 mph - N/A   Overcast
1:35 AM 32.0 °F - 32.0 °F 100% 29.62 in 10.0 mi Calm Calm - N/A   Overcast
1:55 AM 32.0 °F - 32.0 °F 100% 29.62 in 10.0 mi Calm Calm - N/A   Overcast
2:15 AM 32.0 °F - 32.0 °F 100% 29.62 in 10.0 mi Calm Calm - N/A   Overcast
2:35 AM 32.0 °F 28.7 °F 32.0 °F 100% 29.61 in 10.0 mi NW 3.5 mph - N/A   Overcast
2:55 AM 32.0 °F - 32.0 °F 100% 29.60 in 10.0 mi Calm Calm - N/A   Overcast
3:15 AM 32.0 °F - 32.0 °F 100% 29.60 in 10.0 mi Calm Calm - N/A   Overcast
3:35 AM 32.0 °F 27.5 °F 32.0 °F 100% 29.62 in 10.0 mi NW 4.6 mph - N/A   Overcast
3:55 AM 32.0 °F 27.5 °F 32.0 °F 100% 29.61 in 5.0 mi NW 4.6 mph - N/A   Overcast
4:15 AM 32.0 °F 27.5 °F 32.0 °F 100% 29.61 in 4.0 mi WNW 4.6 mph - N/A   Overcast
4:35 AM 32.0 °F 28.7 °F 32.0 °F 100% 29.60 in 3.0 mi NW 3.5 mph - N/A   Overcast
4:55 AM - - - N/A% 29.59 in 2.5 mi WNW 3.5 mph - N/A   Overcast
5:15 AM 32.0 °F 28.7 °F 32.0 °F 100% 29.61 in 4.0 mi WNW 3.5 mph - N/A   Overcast
5:35 AM 32.0 °F 28.7 °F 32.0 °F 100% 29.61 in 3.0 mi WNW 3.5 mph - N/A   Overcast
5:55 AM 32.0 °F 27.5 °F 32.0 °F 100% 29.62 in 3.0 mi WNW 4.6 mph - N/A   Overcast
6:15 AM 32.0 °F 28.7 °F 32.0 °F 100% 29.62 in 2.5 mi NW 3.5 mph - N/A   Overcast
6:35 AM 32.0 °F 28.7 °F 32.0 °F 100% 29.63 in 3.0 mi WNW 3.5 mph - N/A   Overcast
6:55 AM 32.0 °F 27.5 °F 32.0 °F 100% 29.63 in 4.0 mi NW 4.6 mph - N/A   Overcast
7:15 AM 32.0 °F 27.5 °F 32.0 °F 100% 29.63 in 4.0 mi WNW 4.6 mph - N/A   Overcast
7:35 AM 32.0 °F 27.5 °F 32.0 °F 100% 29.64 in 5.0 mi WNW 4.6 mph - N/A   Mostly Cloudy
7:55 AM 32.0 °F 25.6 °F 32.0 °F 100% 29.64 in 3.0 mi WNW 6.9 mph - N/A   Mostly Cloudy
8:15 AM 32.0 °F 26.4 °F 32.0 °F 100% 29.63 in 3.0 mi WNW 5.8 mph - N/A   Scattered Clouds
8:35 AM 32.0 °F 26.4 °F 32.0 °F 100% 29.64 in 2.5 mi WNW 5.8 mph - N/A   Mostly Cloudy
8:55 AM 32.0 °F 27.5 °F 32.0 °F 100% 29.65 in 3.0 mi West 4.6 mph - N/A   Mostly Cloudy
9:15 AM 32.0 °F 27.5 °F 32.0 °F 100% 29.66 in 2.5 mi West 4.6 mph - N/A   Mostly Cloudy
9:35 AM 33.8 °F 29.6 °F 32.0 °F 93% 29.67 in 2.5 mi West 4.6 mph - N/A   Mostly Cloudy
9:55 AM 33.8 °F 27.7 °F 33.8 °F 100% 29.68 in 3.0 mi West 6.9 mph - N/A   Partly Cloudy
10:15 AM 33.8 °F 27.0 °F 33.8 °F 100% 29.69 in 4.0 mi WNW 8.1 mph - N/A   Clear
10:35 AM 35.6 °F 29.2 °F 33.8 °F 93% 29.69 in 5.0 mi WNW 8.1 mph - N/A   Clear
10:55 AM 35.6 °F 26.2 °F 33.8 °F 93% 29.69 in 5.0 mi WNW 15.0 mph - N/A   Mostly Cloudy
11:15 AM 35.6 °F 25.9 °F 33.8 °F 93% 29.69 in 5.0 mi WNW 16.1 mph - N/A   Overcast
11:35 AM 35.6 °F 27.1 °F 33.8 °F 93% 29.69 in 7.0 mi WNW 12.7 mph - N/A   Mostly Cloudy
11:55 AM 35.6 °F 27.1 °F 33.8 °F 93% 29.69 in 9.0 mi WNW 12.7 mph - N/A   Partly Cloudy
12:15 PM 35.6 °F 27.1 °F 33.8 °F 93% 29.70 in 9.0 mi WNW 12.7 mph 17.3 mph N/A   Mostly Cloudy
12:35 PM 35.6 °F 27.1 °F 33.8 °F 93% 29.70 in 9.0 mi WNW 12.7 mph - N/A   Mostly Cloudy
12:55 PM 37.4 °F 29.3 °F 33.8 °F 87% 29.70 in 10.0 mi WNW 12.7 mph 21.9 mph N/A   Partly Cloudy
1:15 PM 37.4 °F 27.2 °F 33.8 °F 87% 29.70 in 10.0 mi WNW 19.6 mph 25.3 mph N/A   Partly Cloudy
1:35 PM 37.4 °F 29.8 °F 33.8 °F 87% 29.71 in 10.0 mi WNW 11.5 mph - N/A   Mostly Cloudy
1:55 PM 37.4 °F 28.5 °F 32.0 °F 81% 29.72 in 10.0 mi WNW 15.0 mph - N/A   Overcast
2:15 PM 37.4 °F 27.8 °F 32.0 °F 81% 29.73 in 10.0 mi WNW 17.3 mph 21.9 mph N/A   Overcast
2:35 PM 35.6 °F 26.6 °F 32.0 °F 87% 29.74 in 10.0 mi WNW 13.8 mph - N/A   Mostly Cloudy
2:55 PM 37.4 °F 29.8 °F 32.0 °F 81% 29.75 in 10.0 mi WNW 11.5 mph - N/A   Mostly Cloudy
3:15 PM 37.4 °F 28.9 °F 32.0 °F 81% 29.76 in 10.0 mi WNW 13.8 mph - N/A   Overcast
3:35 PM 35.6 °F 27.5 °F 32.0 °F 87% 29.77 in 10.0 mi WNW 11.5 mph - N/A   Overcast
3:55 PM 37.4 °F 29.8 °F 30.2 °F 75% 29.78 in 10.0 mi West 11.5 mph - N/A   Overcast
4:15 PM 35.6 °F 28.0 °F 30.2 °F 81% 29.79 in 10.0 mi West 10.4 mph 19.6 mph N/A   Overcast
4:35 PM 35.6 °F 25.5 °F 28.4 °F 75% 29.79 in 10.0 mi WNW 17.3 mph 21.9 mph N/A   Overcast
4:55 PM 35.6 °F 25.9 °F 28.4 °F 75% 29.80 in 10.0 mi WNW 16.1 mph 19.6 mph N/A   Scattered Clouds
5:15 PM 35.6 °F 26.2 °F 28.4 °F 75% 29.81 in 10.0 mi WNW 15.0 mph - N/A   Mostly Cloudy
5:35 PM 35.6 °F 25.9 °F 28.4 °F 75% 29.82 in 10.0 mi WNW 16.1 mph 24.2 mph N/A   Overcast
5:55 PM 33.8 °F 26.4 °F 28.4 °F 81% 29.83 in 10.0 mi West 9.2 mph - N/A   Overcast
6:15 PM 33.8 °F 22.5 °F 23.0 °F 65% 29.84 in 10.0 mi WNW 19.6 mph 25.3 mph N/A   Overcast
6:35 PM 33.8 °F 23.2 °F 23.0 °F 65% 29.85 in 10.0 mi West 17.3 mph 20.7 mph N/A   Mostly Cloudy
6:55 PM 32.0 °F 23.6 °F 21.2 °F 64% 29.86 in 10.0 mi West 10.4 mph - N/A   Partly Cloudy
7:15 PM 32.0 °F 23.6 °F 21.2 °F 64% 29.87 in 10.0 mi West 10.4 mph - N/A   Clear
7:35 PM 32.0 °F 25.6 °F 21.2 °F 64% 29.87 in 10.0 mi West 6.9 mph - N/A   Clear
7:55 PM 32.0 °F 25.6 °F 21.2 °F 64% 29.87 in 10.0 mi West 6.9 mph - N/A   Clear
8:15 PM 32.0 °F 27.5 °F 21.2 °F 64% 29.87 in 10.0 mi West 4.6 mph - N/A   Clear
8:35 PM 32.0 °F 28.7 °F 21.2 °F 64% 29.88 in 10.0 mi WSW 3.5 mph - N/A   Clear
8:55 PM 32.0 °F 28.7 °F 21.2 °F 64% 29.88 in 10.0 mi SW 3.5 mph - N/A   Clear
9:15 PM 30.2 °F 25.4 °F 21.2 °F 69% 29.88 in 10.0 mi SW 4.6 mph - N/A   Clear
9:35 PM 30.2 °F 26.7 °F 21.2 °F 69% 29.88 in 10.0 mi SW 3.5 mph - N/A   Clear
9:55 PM 30.2 °F 25.4 °F 21.2 °F 69% 29.89 in 10.0 mi SW 4.6 mph - N/A   Clear
10:15 PM 30.2 °F 25.4 °F 21.2 °F 69% 29.88 in 10.0 mi SW 4.6 mph - N/A   Clear
10:35 PM 30.2 °F 25.4 °F 21.2 °F 69% 29.89 in 10.0 mi WSW 4.6 mph - N/A   Clear
10:55 PM 30.2 °F 25.4 °F 21.2 °F 69% 29.89 in 10.0 mi SW 4.6 mph - N/A   Clear
11:15 PM 30.2 °F - 21.2 °F 69% 29.89 in 10.0 mi Calm Calm - N/A   Mostly Cloudy
11:35 PM 30.2 °F 25.4 °F 21.2 °F 69% 29.89 in 10.0 mi SW 4.6 mph - N/A   Overcast
11:55 PM 30.2 °F - 21.2 °F 69% 29.89 in 10.0 mi Calm Calm - N/A   Scattered Clouds